Weather in Voronovo

Russia / Tomsk District     56°00′28″N   83°48′07″E
temp.,
°C
wind,
m/s
gust,
m/s
humid.,
%
clouds,
%
prec.,
mm/h
press.,
hPa
HPBL,
m
15 april, thu
thu1501:00+3w3799100 0.1 1024228
04:00+3nw2399100 0.0 102594
07:00+2sse01100100 0.0 102531
10:00+2ssw25100100 0.1 1025124
13:00+3s36100100 0.1 1024189
16:00+4ssw37100100 0.0 1023242
19:00+3ssw410100100 0.0 1021301
22:00+3ssw41199100 0.0 1020355
16 april, fri
fri1601:00+3sw51199100 0.1 1018350
04:00+3sw51099100 0.0 1016304
07:00+3sw51298100 0.0 1015468
10:00+5sw61497100 0.0 1014576
13:00+6sw71696100 0.2 1012556
16:00+11wsw61282100 0.1 10111026
19:00+1n61294100 1.0 1015531
22:00+1nnw41096100 1.0 1018616
17 april, sat
sat1701:000n6108591 1.1 1020729
04:00−4n59786 0.0 1023693
07:00−6nne477524 0.0 1024556
10:00−3ne3461100 0.0 1024813
13:000ene334498 0.0 10211070
16:00+2e1139100 0.0 10191296
19:00+1w234597 0.0 10181434
22:00−1w236575 0.0 101853
18 april, sun
sun1801:00−2wsw38724 0.0 1018216
04:00−2sw387420 0.0 1018293
07:00−1wnw3582100 0.0 1020726
10:000w2359100 0.0 1020695
13:00+3ssw3544100 0.0 10181116
16:00+4s5843100 0.0 10151364
19:00+4ssw61060100 0.0 10121058
22:00+2sse61469100 0.0 1008560
19 april, mon
mon1901:00+2sse71670100 0.0 1002542
04:00+1ssw71397100 1.5 997873
07:00+1wsw6118076 1.7 9981010
10:00−2w91381100 0.2 10001250
13:00−3wnw101467100 0.4 10061568
16:00−2wnw91465100 0.1 10111739
19:00−2wnw81368100 0.3 10151616
22:00−4wnw7117170 0.1 10181180